星链-35230(STARLINK-35230)

导读

STARLINK-35230是美国SpaceX星链互联网星座的一颗卫星,2025年9月21日成功发射。星链项目旨在搭建覆盖全球的低轨卫星互联网,提供高速网络服务,填补地面网络覆盖空白。该卫星入轨后将和其他星链卫星协同工作,进一步完善星座组网,提升全球卫星互联网服务能力。

基本信息
目录编号:
65681
目录名称:
STARLINK-35230
国际标识:
2025-212F
轨道中心:
EARTH
卫星名称:
星链-35230
卫星全名:
星链-35230(STARLINK-35230)
卫星状态:
在轨 (已飞行265 天)
发射日期:
2025-09-21 UTC
国别 :
美国 (US)
星等 :
--
轨道信息
数据来源 国际轨道数据 AOE轨道数据
星历时间 2026-06-13T08:00:02+0800
14小时前
查看轨道信息
2026-06-13T10:00:00+0800
12小时前
查看轨道信息
半长轴 6840.88km 6840.901km
偏心率 0.0001077 0.0000829
轨道倾角 53.159° 53.159°
近地点辐角 98.327° 98.135°
升交点赤经 262.677° 262.289°
平近点角 134.560° 235.168°
近地点 462.006km 462.196km
远地点 463.48km 463.332km
周期 93.849分钟 93.849分钟
每日圈数 15.343869 15.343796
详细信息
固有亮度:
5
最大亮度:
2.5
卫星平台:
Starlink V1.0
覆盖范围:
全球
运营商:
太空探索技术公司
运营商所在国:
美国
制造商(研发单位):
太空探索技术公司
制造商所在国:
美国
使用方式:
暂无
卫星简介
Starlink 计划是 SpaceX 推出的全球卫星互联网项目,通过发射低轨道卫星,为全球尤其是偏远地区提供高速、低延迟的互联网服务。自 2019 年起,Starlink 已部署数千颗卫星,旨在缩小全球数字鸿沟,推动互联网普及。该项目还为军事、航空等行业提供通信支持,带来广泛经济效益。
2D轨道图
3D轨道图
轨道高度分析图
轨道倾角分析图
轨道综合分析图
查看轨道综合分析图